Date,TemperatureHighF,TemperatureAvgF,TemperatureLowF,DewpointHighF,DewpointAvgF,DewpointLowF,HumidityHigh,HumidityAvg,HumidityLow,PressureMaxIn,PressureMinIn,WindSpeedMaxMPH,WindSpeedAvgMPH,GustSpeedMaxMPH,PrecipitationSumIn
2013-8-1,91,82,73,31,27,22,20,13,8,0.00,40.00,18,9,35,0.00
2013-8-2,91,80,68,36,29,14,28,17,8,0.00,40.00,22,6,31,0.00
2013-8-3,93,80,68,25,20,11,17,11,5,0.00,40.00,20,6,33,0.00
2013-8-4,95,85,70,25,18,9,14,9,4,0.00,40.00,18,8,30,0.00
2013-8-5,95,84,71,27,20,11,16,10,5,0.00,40.00,22,7,36,0.00
2013-8-6,97,86,72,31,25,21,16,11,7,0.00,40.00,25,11,41,0.00
2013-8-7,89,81,74,34,28,10,20,15,7,0.00,40.00,26,14,57,0.00
2013-8-8,89,80,69,30,25,16,20,14,7,0.00,40.00,26,9,41,0.00
2013-8-9,86,76,64,37,28,16,31,19,8,0.00,40.00,22,8,31,0.00
2013-8-10,88,79,68,37,33,23,31,19,13,0.00,40.00,19,8,34,0.00
2013-8-11,91,81,68,39,29,18,25,16,7,0.00,40.00,16,7,32,0.00
2013-8-12,94,82,69,37,30,18,28,17,7,0.00,40.00,16,5,27,0.00
2013-8-13,96,85,73,31,23,-100,18,11,6,0.00,40.00,13,5,24,0.00
2013-8-14,97,88,75,27,20,14,13,9,5,0.00,40.00,14,6,28,0.00
2013-8-15,97,84,77,37,17,-100,14,10,8,0.00,40.00,23,10,40,0.00
2013-8-16,97,88,78,43,36,32,21,17,12,0.00,40.00,21,8,38,0.00
2013-8-17,98,87,77,45,36,-100,30,18,9,0.00,40.00,21,6,34,0.00
2013-8-18,101,86,74,49,37,25,40,19,12,0.00,40.00,18,5,37,0.03
2013-8-19,93,78,72,53,41,-100,40,32,23,0.00,40.00,16,6,34,0.03
2013-8-20,96,86,77,48,38,-100,35,21,8,0.00,40.00,26,8,37,0.00
2013-8-21,95,87,79,43,36,31,21,17,11,0.00,40.00,26,10,36,0.00
2013-8-22,94,86,75,41,35,28,28,17,10,0.00,40.00,34,12,50,0.00
2013-8-23,93,84,72,37,27,12,25,14,5,0.00,40.00,24,10,40,0.00
2013-8-24,92,80,69,34,24,-100,26,14,5,0.00,40.00,20,9,35,0.00
2013-8-25,90,82,72,55,30,19,56,17,8,0.00,40.00,23,9,38,0.00
2013-8-26,87,75,66,57,53,48,68,48,32,0.00,40.00,12,4,32,0.00
2013-8-27,83,74,69,58,57,54,65,55,42,0.00,40.00,7,3,13,0.00
2013-8-28,92,88,82,55,50,43,34,28,24,0.00,40.00,21,13,35,0.00
2013-8-29,96,87,77,55,46,43,37,25,16,0.00,40.00,16,9,26,0.00
2013-8-30,95,84,75,61,55,50,49,37,25,0.00,40.00,18,5,24,0.00
2013-8-31,93,83,76,58,51,-100,52,36,25,0.00,40.00,14,5,26,0.00